Regional Weather Roundup
Issued by NWS

Home | Current Version | Previous Version | Graphics & Text | Print | Product List | Glossary On
Versions: 1 2 3 4 5 6 7 8 9 10 11 12 13 14 15 16 17 18 19 20 21 22 23 24 25 26 27 28 29 30 31 32 33 34 35 36 37 38 39 40 41 42 43 44 45 46 47 48 49 50
000
ASUS45 KBOI 261610
RWRID
WEATHER ROUNDUP FOR IDAHO
NATIONAL WEATHER SERVICE BOISE ID
1000 AM MDT THU MAR 26 2015

NOTE: "FAIR" INDICATES FEW OR NO CLOUDS BELOW 12000 FEET
WITH NO SIGNIFICANT WEATHER AND/OR OBSTRUCTIONS TO VISIBILITY

IDZ012-014-261700-
SOUTHWEST IDAHO


CITY           SKY/WX    TMP DP  RH WIND       PRES   REMARKS
BOISE          SUNNY     43  37  79 CALM      30.42R
CALDWELL       SUNNY     43  32  65 W3        30.45R
MOUNTAIN HOME  SUNNY     45  37  72 SW5       30.42R
$$

IDZ016-017-261700-
SOUTHCENTRAL IDAHO


CITY           SKY/WX    TMP DP  RH WIND       PRES   REMARKS
BURLEY         SUNNY     45  32  60 SW5       30.41R
JEROME         SUNNY     43  31  62 SW5       30.43R
TWIN FALLS     SUNNY     49  32  52 SW9       30.42R
$$

IDZ019>023-261700-
SOUTHEAST IDAHO


CITY           SKY/WX    TMP DP  RH WIND       PRES   REMARKS
IDAHO FALLS    MOSUNNY   40  33  76 SW15      30.41S WCI  32
POCATELLO      MOSUNNY   46  34  62 SW14      30.42S
REXBURG        MOSUNNY   39  31  72 SW14G21   30.41R WCI  31
$$

IDZ006-010-011-018-031-032-261700-
CENTRAL IDAHO MOUNTAINS


CITY           SKY/WX    TMP DP  RH WIND       PRES   REMARKS
MCCALL         FOG       30  30 100 CALM      30.40S VSB<1/4
HAILEY         MOSUNNY   43  27  52 NW5       30.41S
STANLEY          N/A     32  23  69 CALM      30.45S
SALMON         CLOUDY    46  34  61 N8        30.37R
CHALLIS        SUNNY     44  27  51 CALM      30.40S
$$

IDZ002-004-006-007-026-261700-
NORTHERN IDAHO


CITY           SKY/WX    TMP DP  RH WIND       PRES   REMARKS
LEWISTON       PTSUNNY   50  41  71 E7        30.34F
LOWELL           N/A     48  43  82 VRB3      30.41R
COEUR D`ALENE  CLOUDY    46  43  87 SE7       30.32S
MULLAN PASS    FOG       34  34 100 S5        30.31R VSB<1/4 WCI  30
$$


USA.gov is the U.S. government's official web portal to all federal, state and local government web resources and services.